FW5912 Weather Reports


Display with metric or nautical units.
time (UTC)temp
F
wind
direction
speed
MPH
gust
MPH
rain 1hr
in
rain 24hr
in
rain mn
in
humidity
%
barometer
mb
20260508214555 73 78 5.0 11.0 0.00 0.00 0.00 92 1010.8
20260508213115 73 59 7.0 13.0 0.00 0.00 0.00 92 1010.8
20260508211558 73 55 7.0 11.0 0.00 0.00 0.00 91 1010.9
20260508210105 73 59 6.0 11.0 0.00 0.00 0.00 91 1011.0
20260508204556 73 65 6.0 13.0 0.00 0.00 0.00 90 1011.0
20260508203109 73 63 7.0 14.0 0.00 0.00 0.00 89 1011.3
20260508201557 73 55 9.0 15.0 0.00 0.00 0.00 89 1011.5
20260508200057 73 77 7.0 15.0 0.00 0.00 0.00 89 1011.7
20260508194555 73 58 8.0 17.0 0.00 0.00 0.00 89 1011.6
20260508193126 73 85 8.0 14.0 0.00 0.00 0.00 88 1011.6
20260508191553 73 23 8.0 15.0 0.00 0.00 0.00 88 1011.9
20260508190054 73 54 7.0 13.0 0.00 0.00 0.00 88 1011.8
20260508184622 72 45 9.0 17.0 0.00 0.00 0.00 89 1011.9
20260508183057 72 51 9.0 15.0 0.00 0.00 0.00 89 1011.8
20260508181553 72 343 8.0 14.0 0.00 0.00 0.00 89 1012.1
20260508174617 70 40 8.0 15.0 0.00 0.00 0.00 91 1012.4
20260508173128 69 54 7.0 13.0 0.00 0.00 0.00 92 1012.9
20260508171623 69 34 8.0 15.0 0.00 0.00 0.00 91 1013.1
20260508170053 69 42 6.0 15.0 0.00 0.00 0.00 92 1013.3
20260508164604 68 39 10.0 15.0 0.00 0.00 0.00 91 1013.7
20260508163058 68 30 9.0 15.0 0.00 0.00 0.00 92 1014.0
20260508161602 68 46 7.0 15.0 0.00 0.00 0.00 92 1014.0
20260508160056 68 13 11.0 15.0 0.00 0.00 0.00 92 1013.9
20260508154553 68 349 11.0 16.0 0.00 0.00 0.00 92 1014.0
20260508153058 68 47 12.0 18.0 0.00 0.00 0.00 92 1014.0
20260508151556 70 44 10.0 16.0 0.00 0.00 0.00 92 1013.9
20260508150055 70 36 10.0 16.0 0.00 0.00 0.00 92 1013.6
20260508144555 70 17 6.0 14.0 0.00 0.00 0.00 91 1013.5
20260508143057 70 25 6.0 10.0 0.00 0.00 0.00 91 1014.0
20260508141555 70 39 6.0 10.0 0.00 0.00 0.00 91 1013.8
20260508140056 71 337 4.0 12.0 0.00 0.00 0.00 90 1013.7
20260508134621 72 35 6.0 11.0 0.00 0.00 0.00 91 1013.4
20260508133110 72 38 5.0 10.0 0.00 0.00 0.00 91 1013.6
20260508131557 71 52 8.0 15.0 0.00 0.00 0.00 91 1013.8
20260508130056 71 36 6.0 14.0 0.00 0.00 0.00 91 1013.8
20260508124555 71 56 8.0 16.0 0.00 0.00 0.00 91 1013.6
20260508123102 71 50 8.0 16.0 0.00 0.00 0.00 90 1013.2
20260508121600 71 57 7.0 12.0 0.00 0.00 0.00 90 1013.3
20260508120056 71 49 6.0 13.0 0.00 0.00 0.00 90 1013.3
20260508114604 72 65 7.0 12.0 0.00 0.00 0.00 90 1013.3
20260508113103 74 55 4.0 9.0 0.00 0.00 0.00 91 1013.5
20260508111600 74 82 5.0 11.0 0.00 0.00 0.00 91 1013.5
20260508110058 74 49 6.0 10.0 0.00 0.00 0.00 90 1013.3
20260508104554 74 56 4.0 11.0 0.00 0.00 0.00 90 1013.5
20260508103056 74 55 6.0 11.0 0.00 0.00 0.00 90 1013.1
20260508101557 74 59 5.0 10.0 0.00 0.00 0.00 90 1013.2
20260508094605 74 74 5.0 11.0 0.00 0.00 0.00 90 1013.3
20260508093052 74 111 5.0 9.0 0.00 0.00 0.00 90 1013.3
20260508091614 74 49 7.0 10.0 0.00 0.00 0.00 90 1013.3
20260508090106 74 67 5.0 10.0 0.00 0.00 0.00 90 1013.3
20260508084554 74 86 5.0 13.0 0.00 0.00 0.00 90 1013.3
20260508083057 74 65 5.0 10.0 0.00 0.00 0.00 90 1013.3
20260508081555 74 61 5.0 9.0 0.00 0.00 0.00 90 1013.6
20260508080052 74 68 4.0 11.0 0.00 0.00 0.00 90 1013.6
20260508074551 74 76 9.0 15.0 0.00 0.00 0.00 89 1013.3
20260508073053 74 54 6.0 12.0 0.00 0.00 0.00 89 1013.8
20260508071557 74 69 6.0 17.0 0.00 0.00 0.00 89 1014.0
20260508070100 73 53 13.0 17.0 0.00 0.00 0.00 88 1013.1
20260508064557 74 136 8.0 19.0 0.00 0.00 0.00 87 1013.5
20260508063133 74 88 13.0 20.0 0.00 0.00 0.00 86 1012.8
20260508061556 74 97 12.0 20.0 0.00 0.00 0.00 86 1013.8
20260508060058 74 98 11.0 20.0 0.00 0.00 0.00 85 1014.0
20260508054555 74 77 13.0 20.0 0.00 0.00 0.00 84 1013.7
20260508053059 74 134 12.0 20.0 0.00 0.00 0.00 84 1013.4
20260508051617 74 74 11.0 20.0 0.00 0.00 0.00 84 1013.7
20260508050057 74 41 8.0 16.0 0.00 0.00 0.00 84 1014.4
20260508044552 75 84 9.0 16.0 0.00 0.00 0.00 84 1014.0
20260508043052 75 116 8.0 16.0 0.00 0.00 0.00 84 1014.9
20260508041555 75 67 6.0 14.0 0.00 0.00 0.00 84 1015.2
20260508040052 75 92 8.0 17.0 0.00 0.00 0.00 84 1015.4
20260508034555 75 55 8.0 14.0 0.00 0.00 0.00 83 1015.4
20260508033055 75 65 10.0 18.0 0.00 0.00 0.00 83 1015.0
20260508031605 75 50 7.0 14.0 0.00 0.00 0.00 83 1015.2
20260508030100 75 54 8.0 14.0 0.00 0.00 0.00 82 1015.1
20260508024552 75 53 8.0 15.0 0.00 0.00 0.00 83 1015.3
20260508023053 75 42 10.0 18.0 0.00 0.00 0.00 82 1015.0
20260508021556 75 53 6.0 14.0 0.00 0.00 0.00 82 1015.0
20260508020106 75 62 6.0 13.0 0.00 0.00 0.00 82 1015.0
20260508014557 75 64 8.0 14.0 0.00 0.00 0.00 82 1014.9
20260508013057 75 44 7.0 13.0 0.00 0.00 0.00 82 1014.9
20260508011556 74 55 7.0 12.0 0.00 0.00 0.00 83 1014.4
20260508010116 74 40 4.0 10.0 0.00 0.00 0.00 83 1014.5
20260508004556 74 49 7.0 13.0 0.00 0.00 0.00 84 1014.1
20260508003103 74 64 6.0 12.0 0.00 0.00 0.00 84 1014.3
20260508001558 74 57 4.0 11.0 0.00 0.00 0.00 84 1014.3
20260508000054 74 45 6.0 11.0 0.00 0.00 0.00 83 1014.2
20260507234558 74 67 4.0 11.0 0.00 0.00 0.00 83 1014.3
20260507233054 74 57 6.0 10.0 0.00 0.00 0.00 83 1014.3
20260507231556 74 78 5.0 10.0 0.00 0.00 0.00 82 1014.2
20260507230109 75 65 6.0 10.0 0.00 0.00 0.00 80 1014.2
20260507224556 75 40 6.0 10.0 0.00 0.00 0.00 80 1014.3
20260507223157 74 346 6.0 12.0 0.00 0.00 0.00 81 1014.1
20260507221555 73 36 9.0 13.0 0.00 0.00 0.00 81 1014.3
20260507220053 73 15 9.0 15.0 0.00 0.00 0.00 81 1014.5